www.pogodaiklimat.ru

Погода и климат >> Архив погоды >> Россия >> Якутия >> Черский


ПОГОДА в Черском

  • Прогноз погоды в Черском
  • Монитор погоды в Черском

АРХИВ ПОГОДЫ в Черском

Время (UTC), дата Ветер
(напр.,м/с)
 
Видим.   Явления Облачность Т
(С)
Тd
(С)
f
(%)
Тe
(С)
Тes
(С)
Комфортность P
(гПа)
Po
(гПа)
Тmin
(С)
Tmax
(С)
R
(мм)
R24
(мм)
S
(см)
18 14.05 С 1 10 км слаб. снег 10/10 400 м
[Sc]
-10.3 -12.1 87 -13 -13 1024.5 1021.2
21 14.05 З 1 10 км слаб. снег 10/10 400 м
[Sc]
-9.3 -12.3 79 -12 -12 1024.8 1021.5 -10.7 0.4 1
00 15.05 З 1 10 км слаб. снег 10/8 330 м
[Sc Ac As]
-7.9 -12.0 72 -10 -10 1024.8 1021.5
03 15.05 З 2 20 км слаб. снег 9/9 330 м
[Sc diur, vesp]
-6.0 -11.8 64 -10 -9 1024.3 1021.0
06 15.05 СЗ 3 20 км {снег} 6/6 300 м
[Sc diur, vesp]
-4.6 -11.7 58 -10 -8 1023.5 1020.2
09 15.05 С 3 20 км 8/0
[Ci fib]
-5.8 -11.5 64 -11 -11 1023.1 1019.8 -4.4 0.0
12 15.05 СВ 3 20 км 4/0
[Ac As Ci]
-8.2 -10.9 81 -14 -14 1022.6 1019.3
15 15.05 В 1 20 км ясно -8.4 -11.6 78 -11 -11 1022.2 1018.9
18 15.05 штиль 0 20 км ясно -6.0 -10.4 71 -7 -5 1021.7 1018.4
21 15.05 С 1 20 км ясно -0.4 -8.3 55 -2 +4 1020.9 1017.7 -9.8
00 16.05 СЗ 3 20 км 3/0
[Ci fib]
+2.6 -9.2 41 -1 +7 1019.9 1016.8
03 16.05 С 3 20 км 6/0
[Ci fib]
+3.2 -9.1 40 0 +7 1019.3 1016.2
06 16.05 С 3 20 км 8/0
[Ac trans Ci fib]
+3.7 -9.7 37 +1 +3 1018.1 1015.0
09 16.05 С 3 20 км 8/0
[Ac trans Ci fib]
+3.0 -9.4 40 -0 0 1016.5 1013.4 +4.2
12 16.05 СВ 2 20 км 9/0
[Ac As]
+0.6 -8.1 52 -2 -2 1015.1 1011.9
15 16.05 СВ 3 20 км 8/8 420 м
[Sc]
+0.4 -5.8 63 -4 -4 1013.7 1010.5
18 16.05 СВ 3 20 км 8/8 870 м
[Sc]
+0.1 -2.3 84 -5 -4 1011.9 1008.7
21 16.05 СВ 2 10 км слаб. дождь 10/8 270 м
[Sc Ac As]
+2.2 +0.9 91 -1 -1 1011.0 1007.8 -0.8 0.3
00 17.05 С 4 10 км слаб. снег {дождь} 10/10 180 м
[St]
+0.1 -0.2 98 -6 -6 1010.7 1007.5
03 17.05 С 4 10 км слаб. снег 10/10 270 м
[St]
-2.2 -3.7 89 -8 -8 1012.1 1008.9
06 17.05 С 5 20 км {снег} 10/9 300 м
[St Ac As]
-4.4 -5.7 91 -12 -11 1013.6 1010.4
09 17.05 С 5
{10}
20 км 10/10 330 м
[St]
-4.9 -6.6 88 -12 -12 1015.6 1012.1 +0.1 2
12 17.05 С 5 20 км 10/8 210 м
[St Ac As]
-5.2 -6.2 93 -13 -13 1016.3 1013.1
15 17.05 С 4 20 км 10/8 210 м
[St Ac As]
-6.9 -7.4 96 -14 -14 1018.0 1014.7
18 17.05 СЗ 5 20 км слаб. снег 10/10 330 м
[St]
-7.7 -8.3 95 -15 -15 1018.6 1015.3
21 17.05 С 5 10 км слаб. снег 10/10 270 м
[St]
-7.0 -8.3 90 -15 -15 1019.6 1016.3 -0.9 0.0
00 18.05 С 3 10 км слаб. снег 10/8 400 м
[Sc As op]
-6.3 -9.4 79 -12 -12 1020.1 1016.8
03 18.05 С 3 20 км {снег} 10/8 450 м
[Sc As op]
-6.0 -9.9 74 -11 -11 1021.0 1017.7
06 18.05 С 4 20 км {снег} 10/10 570 м
[Sc]
-5.9 -10.7 69 -12 -12 1021.4 1018.1
09 18.05 С 4 20 км 9/9 500 м
[Sc]
-7.7 -11.7 73 -14 -14 1022.0 1018.7 -5.6 0.0
12 18.05 С 4 20 км слаб. снег 10/10 570 м
[Sc]
-8.1 -12.1 73 -15 -15 1022.1 1018.8
15 18.05 С 4 20 км {снег} 10/10 570 м
[Sc]
-9.1 -12.5 76 -16 -16 1022.5 1019.2
18 18.05 СЗ 3 20 км {снег} 10/10 600 м
[Sc]
-9.4 -12.4 79 -15 -15 1022.3 1019.0
21 18.05 СЗ 3 20 км слаб. снег 10/10 600 м
[Sc]
-8.4 -17.4 48 -14 -14 1021.8 1018.5 -9.4 0.0
00 19.05 С 3 20 км слаб. снег 8/8 600 м
[Sc]
-6.5 -12.5 62 -12 -10 1020.8 1017.5
03 19.05 СЗ 4 20 км {снег} 1/1 1000 м
[Sc]
-5.7 -11.9 62 -12 -6 1019.3 1016.0
06 19.05 С 4 20 км {снег} 3/0
[Ci fib]
-4.9 -11.6 59 -11 -8 1017.0 1013.8
09 19.05 С 5 20 км 10/0
[Ac As Ci fib]
-7.5 -10.5 79 -15 -15 1015.4 1012.1 -4.3 0.0
12 19.05 С 4 20 км 9/0
[Ac trans Ci fib]
-8.6 -10.5 86 -15 -15 1014.2 1010.9
15 19.05 С 4 20 км 8/0
[Ac trans Ci fib]
-8.4 -10.3 86 -15 -15 1012.8 1009.5
18 19.05 С 3 20 км 10/0
[As op]
-6.5 -9.3 80 -12 -12 1011.6 1008.3
21 19.05 С 2 20 км 10/0
[As op]
-1.3 -6.0 70 -5 -4 1010.6 1007.4 -8.8
00 20.05 ЮВ 1 20 км 10/0
[Ac As]
+2.4 -7.5 48 +2 +5 1010.3 1007.2
03 20.05 С 2 20 км 10/10 400 м
[Sc]
+4.0 -5.9 48 +2 +2 1010.3 1007.2
06 20.05 С 4 4000 м слаб. снег 10/10 300 м
[Sc]
+1.0 -1.3 85 -4 -4 1010.3 1007.1
09 20.05 С 4 10 км слаб. снег 10/10 420 м
[Sc]
+0.3 -0.5 94 -5 -5 1011.2 1008.0 +4.3 0.9
12 20.05 З 1 4000 м слаб. дождь 10/10 210 м
[St]
+0.8 +0.3 96 -1 -1 1012.7 1009.5
15 20.05 ЮЗ 2 4000 м слаб. снег {дождь} 10/10 180 м
[St]
-2.6 -3.6 93 -7 -7 1015.1 1011.9
18 20.05 ЮЗ 2 4000 м слаб. снег {дождь} 10/10 270 м
[St]
-4.4 -5.7 91 -9 -9 1017.6 1014.4
21 20.05 З 3 4000 м слаб. снег 10/9 300 м
[Sc Ac und]
-4.7 -7.1 83 -10 -10 1020.2 1017.0 -5.2 3 1
00 21.05 СЗ 3 4000 м слаб. снег 10/6 400 м
[Sc Ac und]
-4.4 -7.1 81 -10 -9 1022.1 1018.9
03 21.05 С 3 20 км слаб. снег 10/5 480 м
[Sc Ac und]
-3.6 -8.0 71 -9 -8 1023.3 1020.0
06 21.05 С 3 20 км {снег} 3/1 300 м
[Sc Ac trans]
-2.8 -8.5 65 -8 -5 1024.4 1021.2
09 21.05 С 3 20 км 3/3 300 м
[Sc]
-3.7 -9.9 62 -9 -8 1024.8 1021.6 -2.8 0.3
12 21.05 С 2 20 км ясно -6.2 -9.7 76 -10 -10 1024.9 1021.6
15 21.05 СВ 2 20 км ясно -8.0 -10.7 81 -12 -12 1025.2 1021.9

 

Местоположение метеостанции Черский (Якутия, Россия): широта 68.73 долгота 161.30 высота над уровнем моря 28 м.

В архиве по умолчанию представлена погода в Черском за последнюю неделю. Архивные данные за месяц целиком и за предыдущие месяцы, начиная с января 2011 года, Вы можете получить, выбрав интересующий диапазон дат из раскрывающегося списка и нажав кнопку "Ввод!".


*Определитесь, кто Вы:
робот инопланетянин человек

Внимание! Время в таблицах - всемирное. Для получения местного времени необходимо прибавить поправку, которая равна 11 ч.

Смотрите также архив погоды в соседних городах и на ближайших метеорологических станциях:

Погода в Анюйске (Чукотка, Россия) (43 км)
Погода в Константиновской (Чукотка, Россия) (65 км)
Погода в Бухте Амбарчик (Чукотка, Россия) (107 км)
Погода в Колымской (Якутия, Россия) (109 км)
Погода в Островном (Чукотка, Россия) (133 км)
Погода в Билибино (Чукотка, Россия) (222 км)
Погода в Раучуе (Чукотка, Россия) (223 км)
Погода в Баимке (Чукотка, Россия) (274 км)
Погода в Андрюшкино (Якутия, Россия) (276 км)
Погода на Айон Острове (Чукотка, Россия) (291 км)

Пояснения к столбцам:

Ветер - указаны скорость ветра в м/с - средняя за 10 мин, порывы в срок и между сроками (в фигурных скобках) и направление, откуда дует ветер: С - северный, СВ - северо-восточный, В - восточный, ЮВ - юго-восточный, Ю - южный, ЮЗ - юго-западный, З - западный, СЗ - северо-западный.
Видимость - горизонтальная дальность видимости в метрах или километрах. При видимости от 1 до 10 км при отсутствии осадков обычно наблюдается дымка, при ухудшении видимости до 1 км и менее - туман. В сухую погоду видимость может ухудшаться дымом, пылью или мглою.
Явления - указаны атмосферные явления, наблюдавшиеся в срок или в последний час перед сроком; фигурными скобками обозначены явления, наблюдавшиеся между сроками (за 1-3 часа до срока); квадратными скобками обозначены град или гололедные отложения с указанием их диаметра в мм.
Облачность - указаны через наклонную черту общая и нижняя облачность в баллах и высота нижней границы облаков в метрах; квадратными скобками обозначены формы облаков: Ci - перистые, Cs - перисто-слоистые, Cc - перисто-кучевые, Ac - высококучевые, As - высокослоистые, Sc - слоисто-кучевые, Ns - слоисто-дождевые, Cu - кучевые, Cb - кучево-дождевые. Подробнее классификацию облаков см. в Атласе облаков (PDF).
T - Температура воздуха - температура, измеренная на высоте 2 м над землей.
Td - Температура точки росы - температура, при понижении до которой содержащийся в воздухе водяной пар достигнет насыщения.
f - Относительная влажность воздуха - влажноcть воздуха, измеренная на высоте 2 м над землей.
Te - Эффективная температура - температура, которую ощущает одетый по сезону человек в тени. Характеристика душности погоды. При расчете учитывается влияние влажности воздуха и скорости ветра на теплоощущения человека.
Tes - Эффективная температура на солнце - температура, которую ощущает человек, с поправкой на солнечный нагрев. Характеристика знойности погоды. Зависит от высоты солнца над горизонтом, облачности и скорости ветра. Ночью, в пасмурную погоду, а также при ветре 12 м/с и более поправка равна нулю.
P - Атмосферное давление - приведенное к уровню моря атмосферное давление.
Po - Атмосферное давление - измеренное на уровне метеостанции атмосферное давление.
Tmin - Минимальная температура - минимум температуры воздуха на высоте 2 м над землей.
Tmax - Максимальная температура - максимум температуры воздуха на высоте 2 м над землей.
R - Количество осадков - Количество выпавших осадков за период времени, мм. При наведении курсора мыши на число - период времени, за который выпало указанное количество осадков.
R24 - Количество осадков - Количество выпавших осадков за 24 часа, мм.
S - Снежный покров - Высота снежного покрова, см. При наведении курсора мыши на число - состояние снежного покрова и степень покрытия местности в баллах.